Showing default

OPS 6026 (DMSP 4A F1), 2418

Orbit data source: Space-Track

OPS 6026 (DMSP 4A F1), 2418 is a payload satellite owned by USAF SSD (US) in SSO that was launched on Fri, 16 Sep 1966 UTC via a THOR BURNER 2 launch vehicle from the Air Force Western Test Range (AFWTR). Payload-class satellites include a variety of spacecraft equipped with specific instruments for various scientific and technological missions. These include communications satellites like Starlink; space stations such as the ISS; scientific satellites like the Hubble; Earth observation satellites from companies like Planet Labs, Umbra, and HawkEye 360; GPS; miniature CubeSats for education and research; and military/defense satellites.

Loading next visibility...
Identifier
2418, 1966-082A
Orbit
SSO
Country
Flag of USUS
Related business
Manufacturer
RCA/East Windsor
Mission
Non-operational spacecraft
Bus & Motor
DMSP BLOCK 4A, Unknown motor
Mass
79 kg wet, 79 kg dry
Launch date (UTC)
1966-09-16 (59 years ago)
Launch vehicle
THOR BURNER 2
Launch site
Air Force Western Test Range (AFWTR)
Object type
Payload
Rocket body
Debris
Shape & HBR
Unknown
Radar Cross Section
Medium (>0.1 m² and <1 m²)

Expand to show TLE details & history
Last TLE update: 14 hours ago

TLE from 14 hours ago
0 OPS 6026 (DMSP 4A F1)
1 02418U 66082A   25352.42402674  .00000389  00000-0  11865-3 0  9997
2 02418  98.3138 144.3849 0115003 211.3285 148.1019 14.43742660 86201
Epoch: 2025-12-18T10:10Z
TLE epoch observation values (Epoch: 2025-12-18T10:10:35.910Z)
Latitude
-0.00009°
Longitude
-95.54445°
Altitude
818.951 km
Speed
7.407 km/s
True Right ascension
09h 37m 32s
True Declination
0° 00' 00"
Sunlit
Object was in full shadow at epoch
Visualization orbit readout
Latitude
Unknown
Longitude
Unknown
Altitude
Unknown
Speed
Unknown
Apparent Right ascension
Unknown
Apparent Declination
Unknown
Sunlit
N/A
Visualization observer readout
Local Sidereal Time
22:39:16
Azimuth
Unknown
Elevation
Unknown
Doppler factor
Unknown
Orbital elements
Apogee altitude
825.165 km
Perigee altitude
661.369 km
Semi-major axis
7,121.404 km
Eccentricity
0.0115
Inclination
98.3138°
RAAN
144.3849°
Arg. of periapsis
211.3285°
True anomaly
148.78984°
Mean anomaly
148.1019°
Eccentric anomaly
148.44671°
Mean motion
3.61156 °/min
Orbital period
99.68 mins
BSTAR
0.00011865
Loading maneuver chart data...
Computing Atmospheric mass density...
Loading historical data...
Loading historical data...
Loading historical data...
Loading historical data...
Loading historical data...
Loading historical data...
Loading historical data...
Other satellites on launch #82 in the year 1966 (1966-09-16 UTC)

Documentation

Showing up to 5 results
|